Regional Weather Roundup
Issued by NWS Kansas City/Pleasant Hill, MO

Home | Current Version | Previous Version | Graphics & Text | Print | Product List | Glossary Off
Versions: 1 2 3 4 5 6 7 8 9 10 11 12 13 14 15 16 17 18 19 20 21 22 23 24 25 26 27

000
ASUS43 KEAX 262210
RWREAX

WEATHER ROUNDUP FOR EASTERN KANSAS AND NORTHWEST MISSOURI
NATIONAL WEATHER SERVICE KANSAS CITY/PLEASANT HILL MO
500 PM CDT MON JUN 26 2017

KSZ040-057-103>105-MOZ028-029-037-043-262300-
...KANSAS CITY METROPOLITAN AREA...

CITY           SKY/WX    TMP DP  RH WIND       PRES   REMARKS
K.C. INTL      PTSUNNY   70  55  59 S9        30.12F
K.C. DOWNTOWN  PTSUNNY   74  54  49 S12G17    30.11F
LEES SUMMIT    PTSUNNY   72  52  49 SE9       30.12F
OLATHE - IXD   SUNNY     71  55  56 SE13      30.13F
OLATHE - OJC   SUNNY     70  54  56 SE10      30.12F
LAWRENCE       MOSUNNY   74  58  57 SE13      30.11F

$$

MOZ001>008-011>017-020>025-030>033-038>040-044>046-053-054-262300-
...NORTHERN AND CENTRAL MISSOURI...

CITY           SKY/WX    TMP DP  RH WIND       PRES   REMARKS
ST. JOSEPH     CLOUDY    69  59  70 W3        30.13F
WARRENSBURG    MOSUNNY   70  55  60 S7        30.11F
WHITEMAN AFB   PTSUNNY   65  65 100 SE5       30.11F
CLINTON        MOSUNNY   72  55  56 SE10      30.13F
SEDALIA        CLOUDY    65  62  90 S6        30.13F
WARSAW         NOT AVBL
CHILLICOTHE      N/A     68  58  70 CALM      30.15F
KIRKSVILLE     PTSUNNY   72  54  53 W8        30.13F

$$

MOZ041-047>049-056>058-063>065-088>090-097-262300-
...EASTERN AND SOUTHERN MISSOURI...

CITY           SKY/WX    TMP DP  RH WIND       PRES   REMARKS
ST. LOUIS INTL PTSUNNY   75  49  39 W12       30.13F
SPIRIT OF STL  CLOUDY    70  56  61 W7        30.14S
COLUMBIA       MOSUNNY   63  59  87 SW8       30.14S
JEFFERSON CITY CLOUDY    63  57  81 SW6       30.13F
ROLLA          LGT RAIN  60  56  86 N5        30.16F
OSAGE BEACH    CLOUDY    64  55  72 E5        30.17F
SPRINGFIELD    CLOUDY    67  65  93 NE13      30.14S
BRANSON        CLOUDY    77  64  65 CALM      30.12F
JOPLIN         CLOUDY    76  66  71 NE10      30.09S
WEST PLAINS    CLOUDY    73  59  61 MISG      30.16R

$$

IAZ060-094-KSZ022-034>040-054-083-096-NEZ052-066-093-262300-
...KANSAS...SOUTHEAST NEBRASKA AND IOWA...

CITY           SKY/WX    TMP DP  RH WIND       PRES   REMARKS
TOPEKA         PTSUNNY   76  59  55 E9        30.10F
MANHATTAN      MOSUNNY   79  61  53 E9        30.07F
EMPORIA        MOSUNNY   81  62  52 SE13      30.06F
CHANUTE        PTSUNNY   76  64  66 NE13G21   30.08F
WICHITA        MOSUNNY   87  58  37 VRB6      30.03F
OMAHA          MOSUNNY   78  49  35 N13       30.11F
LINCOLN        MOSUNNY   77  60  55 E8        30.11F
FALLS CITY     CLOUDY    68  59  73 E5        30.12F
LAMONI         MOSUNNY   72  54  53 W5        30.11F
DES MOINES     MOSUNNY   75  48  38 VRB5      30.10F

$$





USA.gov is the U.S. government's official web portal to all federal, state and local government web resources and services.